Track COSMOS 2426 (GLONASS) now! COSMOS 2426 (GLONASS) is classified as:
1 29671U 06062B 24335.87610623 .00000079 00000-0 00000-0 0 9995 2 29671 64.6977 213.2675 0021340 177.8397 0.8189 2.12963338139550